Year,Month,Day,Hour,Minute,Value (Times are PST for barometer in hPa)
2015,04,05,00,00,994.92
2015,04,05,00,01,994.92
2015,04,05,00,02,994.92
2015,04,05,00,03,994.89
2015,04,05,00,04,994.85
2015,04,05,00,05,994.79
2015,04,05,00,06,994.82
2015,04,05,00,07,994.82
2015,04,05,00,08,994.85
2015,04,05,00,09,994.79
2015,04,05,00,10,994.82
2015,04,05,00,11,994.85
2015,04,05,00,12,994.82
2015,04,05,00,13,994.82
2015,04,05,00,14,994.79
2015,04,05,00,15,994.75
2015,04,05,00,16,994.75
2015,04,05,00,17,994.79
2015,04,05,00,18,994.79
2015,04,05,00,19,994.75
2015,04,05,00,20,994.79
2015,04,05,00,21,994.82
2015,04,05,00,22,994.82
2015,04,05,00,23,994.79
2015,04,05,00,24,994.79
2015,04,05,00,25,994.72
2015,04,05,00,26,994.72
2015,04,05,00,27,994.68
2015,04,05,00,28,994.68
2015,04,05,00,29,994.68
2015,04,05,00,30,994.68
2015,04,05,00,31,994.65
2015,04,05,00,32,994.72
2015,04,05,00,33,994.65
2015,04,05,00,34,994.62
2015,04,05,00,35,994.65
2015,04,05,00,36,994.65
2015,04,05,00,37,994.62
2015,04,05,00,38,994.58
2015,04,05,00,39,994.62
2015,04,05,00,40,994.58
2015,04,05,00,41,994.58
2015,04,05,00,42,994.58
2015,04,05,00,43,994.62
2015,04,05,00,44,994.58
2015,04,05,00,45,994.58
2015,04,05,00,46,994.58
2015,04,05,00,47,994.62
2015,04,05,00,48,994.62
2015,04,05,00,49,994.65
2015,04,05,00,50,994.62
2015,04,05,00,51,994.58
2015,04,05,00,52,994.51
2015,04,05,00,53,994.51
2015,04,05,00,54,994.58
2015,04,05,00,55,994.55
2015,04,05,00,56,994.51
2015,04,05,00,57,994.48
2015,04,05,00,58,994.45
2015,04,05,00,59,994.51
2015,04,05,01,00,994.48
2015,04,05,01,01,994.48
2015,04,05,01,02,994.45
2015,04,05,01,03,994.41
2015,04,05,01,04,994.38
2015,04,05,01,05,994.41
2015,04,05,01,06,994.41
2015,04,05,01,07,994.41
2015,04,05,01,08,994.45
2015,04,05,01,09,994.41
2015,04,05,01,10,994.41
2015,04,05,01,11,994.38
2015,04,05,01,12,994.35
2015,04,05,01,13,994.35
2015,04,05,01,14,994.35
2015,04,05,01,15,994.35
2015,04,05,01,16,994.38
2015,04,05,01,17,994.35
2015,04,05,01,18,994.35
2015,04,05,01,19,994.31
2015,04,05,01,20,994.31
2015,04,05,01,21,994.35
2015,04,05,01,22,994.35
2015,04,05,01,23,994.38
2015,04,05,01,24,994.28
2015,04,05,01,25,994.31
2015,04,05,01,26,994.35
2015,04,05,01,27,994.38
2015,04,05,01,28,994.28
2015,04,05,01,29,994.31
2015,04,05,01,30,994.31
2015,04,05,01,31,994.28
2015,04,05,01,32,994.35
2015,04,05,01,33,994.28
2015,04,05,01,34,994.31
2015,04,05,01,35,994.31
2015,04,05,01,36,994.28
2015,04,05,01,37,994.28
2015,04,05,01,38,994.31
2015,04,05,01,39,994.28
2015,04,05,01,40,994.24
2015,04,05,01,41,994.31
2015,04,05,01,42,994.24
2015,04,05,01,43,994.28
2015,04,05,01,44,994.24
2015,04,05,01,45,994.24
2015,04,05,01,46,994.24
2015,04,05,01,47,994.21
2015,04,05,01,48,994.21
2015,04,05,01,49,994.21
2015,04,05,01,50,994.21
2015,04,05,01,51,994.18
2015,04,05,01,52,994.21
2015,04,05,01,53,994.18
2015,04,05,01,54,994.11
2015,04,05,01,55,994.07
2015,04,05,01,56,994.14
2015,04,05,01,57,994.11
2015,04,05,01,58,994.11
2015,04,05,01,59,994.11
2015,04,05,02,00,994.04
2015,04,05,02,01,994.01
2015,04,05,02,02,994.01
2015,04,05,02,03,994.01
2015,04,05,02,04,994.04
2015,04,05,02,05,993.97
2015,04,05,02,06,994.01
2015,04,05,02,07,993.94
2015,04,05,02,08,993.94
2015,04,05,02,09,993.87
2015,04,05,02,10,993.91
2015,04,05,02,11,993.91
2015,04,05,02,12,993.94
2015,04,05,02,13,993.91
2015,04,05,02,14,993.87
2015,04,05,02,15,993.84
2015,04,05,02,16,993.87
2015,04,05,02,17,993.84
2015,04,05,02,18,993.80
2015,04,05,02,19,993.80
2015,04,05,02,20,993.77
2015,04,05,02,21,993.80
2015,04,05,02,22,993.77
2015,04,05,02,23,993.74
2015,04,05,02,24,993.74
2015,04,05,02,25,993.70
2015,04,05,02,26,993.70
2015,04,05,02,27,993.67
2015,04,05,02,28,993.67
2015,04,05,02,29,993.63
2015,04,05,02,30,993.67
2015,04,05,02,31,993.70
2015,04,05,02,32,993.70
2015,04,05,02,33,993.74
2015,04,05,02,34,993.74
2015,04,05,02,35,993.74
2015,04,05,02,36,993.74
2015,04,05,02,37,993.77
2015,04,05,02,38,993.74
2015,04,05,02,39,993.74
2015,04,05,02,40,993.74
2015,04,05,02,41,993.74
2015,04,05,02,42,993.70
2015,04,05,02,43,993.77
2015,04,05,02,44,993.77
2015,04,05,02,45,993.77
2015,04,05,02,46,993.77
2015,04,05,02,47,993.70
2015,04,05,02,48,993.77
2015,04,05,02,49,993.74
2015,04,05,02,50,993.74
2015,04,05,02,51,993.74
2015,04,05,02,52,993.74
2015,04,05,02,53,993.70
2015,04,05,02,54,993.70
2015,04,05,02,55,993.67
2015,04,05,02,56,993.63
2015,04,05,02,57,993.70
2015,04,05,02,58,993.63
2015,04,05,02,59,993.63
2015,04,05,03,00,993.60
2015,04,05,03,01,993.63
2015,04,05,03,02,993.60
2015,04,05,03,03,993.60
2015,04,05,03,04,993.57
2015,04,05,03,05,993.60
2015,04,05,03,06,993.60
2015,04,05,03,07,993.63
2015,04,05,03,08,993.60
2015,04,05,03,09,993.63
2015,04,05,03,10,993.63
2015,04,05,03,11,993.60
2015,04,05,03,12,993.60
2015,04,05,03,13,993.63
2015,04,05,03,14,993.60
2015,04,05,03,15,993.60
2015,04,05,03,16,993.53
2015,04,05,03,17,993.53
2015,04,05,03,18,993.53
2015,04,05,03,19,993.60
2015,04,05,03,20,993.57
2015,04,05,03,21,993.60
2015,04,05,03,22,993.60
2015,04,05,03,23,993.57
2015,04,05,03,24,993.57
2015,04,05,03,25,993.53
2015,04,05,03,26,993.53
2015,04,05,03,27,993.60
2015,04,05,03,28,993.57
2015,04,05,03,29,993.53
2015,04,05,03,30,993.60
2015,04,05,03,31,993.53
2015,04,05,03,32,993.57
2015,04,05,03,33,993.53
2015,04,05,03,34,993.53
2015,04,05,03,35,993.53
2015,04,05,03,36,993.57
2015,04,05,03,37,993.53
2015,04,05,03,38,993.57
2015,04,05,03,39,993.53
2015,04,05,03,40,993.50
2015,04,05,03,41,993.46
2015,04,05,03,42,993.43
2015,04,05,03,43,993.46
2015,04,05,03,44,993.46
2015,04,05,03,45,993.40
2015,04,05,03,46,993.50
2015,04,05,03,47,993.50
2015,04,05,03,48,993.46
2015,04,05,03,49,993.50
2015,04,05,03,50,993.46
2015,04,05,03,51,993.46
2015,04,05,03,52,993.50
2015,04,05,03,53,993.46
2015,04,05,03,54,993.46
2015,04,05,03,55,993.46
2015,04,05,03,56,993.43
2015,04,05,03,57,993.43
2015,04,05,03,58,993.43
2015,04,05,03,59,993.40
2015,04,05,04,00,993.40
2015,04,05,04,01,993.36
2015,04,05,04,02,993.36
2015,04,05,04,03,993.40
2015,04,05,04,04,993.26
2015,04,05,04,05,993.26
2015,04,05,04,06,993.26
2015,04,05,04,07,993.19
2015,04,05,04,08,993.19
2015,04,05,04,09,993.23
2015,04,05,04,10,993.19
2015,04,05,04,11,993.13
2015,04,05,04,12,993.16
2015,04,05,04,13,993.09
2015,04,05,04,14,993.19
2015,04,05,04,15,993.09
2015,04,05,04,16,993.09
2015,04,05,04,17,993.09
2015,04,05,04,18,993.09
2015,04,05,04,19,993.09
2015,04,05,04,20,993.02
2015,04,05,04,21,993.16
2015,04,05,04,22,993.09
2015,04,05,04,23,993.09
2015,04,05,04,24,993.13
2015,04,05,04,25,993.09
2015,04,05,04,26,993.09
2015,04,05,04,27,993.02
2015,04,05,04,28,992.99
2015,04,05,04,29,992.96
2015,04,05,04,30,992.99
2015,04,05,04,31,992.96
2015,04,05,04,32,992.92
2015,04,05,04,33,992.96
2015,04,05,04,34,992.96
2015,04,05,04,35,992.92
2015,04,05,04,36,992.92
2015,04,05,04,37,992.89
2015,04,05,04,38,992.89
2015,04,05,04,39,992.96
2015,04,05,04,40,992.92
2015,04,05,04,41,992.92
2015,04,05,04,42,992.89
2015,04,05,04,43,992.92
2015,04,05,04,44,992.92
2015,04,05,04,45,992.89
2015,04,05,04,46,992.89
2015,04,05,04,47,992.89
2015,04,05,04,48,992.89
2015,04,05,04,49,992.89
2015,04,05,04,50,992.86
2015,04,05,04,51,992.89
2015,04,05,04,52,992.79
2015,04,05,04,53,992.82
2015,04,05,04,54,992.75
2015,04,05,04,55,992.82
2015,04,05,04,56,992.82
2015,04,05,04,57,992.86
2015,04,05,04,58,992.82
2015,04,05,04,59,992.86
2015,04,05,05,00,992.82
2015,04,05,05,01,992.75
2015,04,05,05,02,992.75
2015,04,05,05,03,992.75
2015,04,05,05,04,992.75
2015,04,05,05,05,992.79
2015,04,05,05,06,992.79
2015,04,05,05,07,992.75
2015,04,05,05,08,992.65
2015,04,05,05,09,992.69
2015,04,05,05,10,992.69
2015,04,05,05,11,992.65
2015,04,05,05,12,992.58
2015,04,05,05,13,992.62
2015,04,05,05,14,992.62
2015,04,05,05,15,992.62
2015,04,05,05,16,992.62
2015,04,05,05,17,992.55
2015,04,05,05,18,992.58
2015,04,05,05,19,992.58
2015,04,05,05,20,992.52
2015,04,05,05,21,992.48
2015,04,05,05,22,992.52
2015,04,05,05,23,992.48
2015,04,05,05,24,992.52
2015,04,05,05,25,992.48
2015,04,05,05,26,992.45
2015,04,05,05,27,992.48
2015,04,05,05,28,992.45
2015,04,05,05,29,992.42
2015,04,05,05,30,992.38
2015,04,05,05,31,992.42
2015,04,05,05,32,992.45
2015,04,05,05,33,992.42
2015,04,05,05,34,992.42
2015,04,05,05,35,992.42
2015,04,05,05,36,992.35
2015,04,05,05,37,992.31
2015,04,05,05,38,992.35
2015,04,05,05,39,992.25
2015,04,05,05,40,992.28
2015,04,05,05,41,992.28
2015,04,05,05,42,992.31
2015,04,05,05,43,992.31
2015,04,05,05,44,992.31
2015,04,05,05,45,992.31
2015,04,05,05,46,992.31
2015,04,05,05,47,992.28
2015,04,05,05,48,992.35
2015,04,05,05,49,992.31
2015,04,05,05,50,992.31
2015,04,05,05,51,992.31
2015,04,05,05,52,992.25
2015,04,05,05,53,992.21
2015,04,05,05,54,992.21
2015,04,05,05,55,992.21
2015,04,05,05,56,992.21
2015,04,05,05,57,992.18
2015,04,05,05,58,992.14
2015,04,05,05,59,992.14
2015,04,05,06,00,992.21
2015,04,05,06,01,992.18
2015,04,05,06,02,992.11
2015,04,05,06,03,992.18
2015,04,05,06,04,992.18
2015,04,05,06,05,992.14
2015,04,05,06,06,992.14
2015,04,05,06,07,992.14
2015,04,05,06,08,992.18
2015,04,05,06,09,992.25
2015,04,05,06,10,992.18
2015,04,05,06,11,992.18
2015,04,05,06,12,992.11
2015,04,05,06,13,992.14
2015,04,05,06,14,992.14
2015,04,05,06,15,992.11
2015,04,05,06,16,992.14
2015,04,05,06,17,992.14
2015,04,05,06,18,992.11
2015,04,05,06,19,992.14
2015,04,05,06,20,992.11
2015,04,05,06,21,992.18
2015,04,05,06,22,992.21
2015,04,05,06,23,992.14
2015,04,05,06,24,992.18
2015,04,05,06,25,992.21
2015,04,05,06,26,992.18
2015,04,05,06,27,992.14
2015,04,05,06,28,992.18
2015,04,05,06,29,992.14
2015,04,05,06,30,992.14
2015,04,05,06,31,992.14
2015,04,05,06,32,992.18
2015,04,05,06,33,992.08
2015,04,05,06,34,992.08
2015,04,05,06,35,992.08
2015,04,05,06,36,992.04
2015,04,05,06,37,992.08
2015,04,05,06,38,992.08
2015,04,05,06,39,992.04
2015,04,05,06,40,992.04
2015,04,05,06,41,992.01
2015,04,05,06,42,992.04
2015,04,05,06,43,991.97
2015,04,05,06,44,992.01
2015,04,05,06,45,992.01
2015,04,05,06,46,992.01
2015,04,05,06,47,991.94
2015,04,05,06,48,991.94
2015,04,05,06,49,991.91
2015,04,05,06,50,991.91
2015,04,05,06,51,991.87
2015,04,05,06,52,991.91
2015,04,05,06,53,991.91
2015,04,05,06,54,991.91
2015,04,05,06,55,991.87
2015,04,05,06,56,991.91
2015,04,05,06,57,991.91
2015,04,05,06,58,991.91
2015,04,05,06,59,991.91
2015,04,05,07,00,991.91
2015,04,05,07,01,991.94
2015,04,05,07,02,991.94
2015,04,05,07,03,991.94
2015,04,05,07,04,991.94
2015,04,05,07,05,991.94
2015,04,05,07,06,991.91
2015,04,05,07,07,991.91
2015,04,05,07,08,991.91
2015,04,05,07,09,991.91
2015,04,05,07,10,991.91
2015,04,05,07,11,991.91
2015,04,05,07,12,991.87
2015,04,05,07,13,991.87
2015,04,05,07,14,991.87
2015,04,05,07,15,991.84
2015,04,05,07,16,991.81
2015,04,05,07,17,991.77
2015,04,05,07,18,991.81
2015,04,05,07,19,991.77
2015,04,05,07,20,991.84
2015,04,05,07,21,991.84
2015,04,05,07,22,991.84
2015,04,05,07,23,991.84
2015,04,05,07,24,991.81
2015,04,05,07,25,991.87
2015,04,05,07,26,991.87
2015,04,05,07,27,991.84
2015,04,05,07,28,991.87
2015,04,05,07,29,991.91
2015,04,05,07,30,991.87
2015,04,05,07,31,991.87
2015,04,05,07,32,991.87
2015,04,05,07,33,991.91
2015,04,05,07,34,991.91
2015,04,05,07,35,991.91
2015,04,05,07,36,991.84
2015,04,05,07,37,991.87
2015,04,05,07,38,991.81
2015,04,05,07,39,991.84
2015,04,05,07,40,991.81
2015,04,05,07,41,991.77
2015,04,05,07,42,991.77
2015,04,05,07,43,991.77
2015,04,05,07,44,991.74
2015,04,05,07,45,991.70
2015,04,05,07,46,991.70
2015,04,05,07,47,991.74
2015,04,05,07,48,991.67
2015,04,05,07,49,991.67
2015,04,05,07,50,991.64
2015,04,05,07,51,991.64
2015,04,05,07,52,991.60
2015,04,05,07,53,991.64
2015,04,05,07,54,991.64
2015,04,05,07,55,991.64
2015,04,05,07,56,991.64
2015,04,05,07,57,991.64
2015,04,05,07,58,991.64
2015,04,05,07,59,991.60
2015,04,05,08,00,991.60
2015,04,05,08,01,991.64
2015,04,05,08,02,991.64
2015,04,05,08,03,991.67
2015,04,05,08,04,991.64
2015,04,05,08,05,991.64
2015,04,05,08,06,991.67
2015,04,05,08,07,991.67
2015,04,05,08,08,991.67
2015,04,05,08,09,991.70
2015,04,05,08,10,991.67
2015,04,05,08,11,991.67
2015,04,05,08,12,991.64
2015,04,05,08,13,991.64
2015,04,05,08,14,991.67
2015,04,05,08,15,991.64
2015,04,05,08,16,991.60
2015,04,05,08,17,991.64
2015,04,05,08,18,991.60
2015,04,05,08,19,991.60
2015,04,05,08,20,991.60
2015,04,05,08,21,991.60
2015,04,05,08,22,991.60
2015,04,05,08,23,991.57
2015,04,05,08,24,991.53
2015,04,05,08,25,991.53
2015,04,05,08,26,991.47
2015,04,05,08,27,991.50
2015,04,05,08,28,991.47
2015,04,05,08,29,991.50
2015,04,05,08,30,991.43
2015,04,05,08,31,991.47
2015,04,05,08,32,991.47
2015,04,05,08,33,991.43
2015,04,05,08,34,991.43
2015,04,05,08,35,991.43
2015,04,05,08,36,991.43
2015,04,05,08,37,991.43
2015,04,05,08,38,991.43
2015,04,05,08,39,991.40
2015,04,05,08,40,991.40
2015,04,05,08,41,991.40
2015,04,05,08,42,991.43
2015,04,05,08,43,991.40
2015,04,05,08,44,991.37
2015,04,05,08,45,991.37
2015,04,05,08,46,991.30
2015,04,05,08,47,991.30
2015,04,05,08,48,991.33
2015,04,05,08,49,991.37
2015,04,05,08,50,991.33
2015,04,05,08,51,991.37
2015,04,05,08,52,991.30
2015,04,05,08,53,991.30
2015,04,05,08,54,991.30
2015,04,05,08,55,991.30
2015,04,05,08,56,991.33
2015,04,05,08,57,991.30
2015,04,05,08,58,991.33
2015,04,05,08,59,991.33
2015,04,05,09,00,991.33
2015,04,05,09,01,991.30
2015,04,05,09,02,991.26
2015,04,05,09,03,991.30
2015,04,05,09,04,991.33
2015,04,05,09,05,991.33
2015,04,05,09,06,991.23
2015,04,05,09,07,991.26
2015,04,05,09,08,991.30
2015,04,05,09,09,991.26
2015,04,05,09,10,991.23
2015,04,05,09,11,991.20
2015,04,05,09,12,991.23
2015,04,05,09,13,991.23
2015,04,05,09,14,991.20
2015,04,05,09,15,991.20
2015,04,05,09,16,991.16
2015,04,05,09,17,991.23
2015,04,05,09,18,991.23
2015,04,05,09,19,991.30
2015,04,05,09,20,991.26
2015,04,05,09,21,991.23
2015,04,05,09,22,991.23
2015,04,05,09,23,991.23
2015,04,05,09,24,991.26
2015,04,05,09,25,991.26
2015,04,05,09,26,991.23
2015,04,05,09,27,991.20
2015,04,05,09,28,991.23
2015,04,05,09,29,991.23
2015,04,05,09,30,991.26
2015,04,05,09,31,991.30
2015,04,05,09,32,991.20
2015,04,05,09,33,991.26
2015,04,05,09,34,991.26
2015,04,05,09,35,991.30
2015,04,05,09,36,991.23
2015,04,05,09,37,991.26
2015,04,05,09,38,991.26
2015,04,05,09,39,991.30
2015,04,05,09,40,991.30
2015,04,05,09,41,991.30
2015,04,05,09,42,991.30
2015,04,05,09,43,991.30
2015,04,05,09,44,991.30
2015,04,05,09,45,991.30
2015,04,05,09,46,991.30
2015,04,05,09,47,991.23
2015,04,05,09,48,991.26
2015,04,05,09,49,991.30
2015,04,05,09,50,991.26
2015,04,05,09,51,991.30
2015,04,05,09,52,991.23
2015,04,05,09,53,991.26
2015,04,05,09,54,991.23
2015,04,05,09,55,991.26
2015,04,05,09,56,991.33
2015,04,05,09,57,991.30
2015,04,05,09,58,991.33
2015,04,05,09,59,991.37
2015,04,05,10,00,991.37
2015,04,05,10,01,991.40
2015,04,05,10,02,991.40
2015,04,05,10,03,991.43
2015,04,05,10,04,991.37
2015,04,05,10,05,991.40
2015,04,05,10,06,991.47
2015,04,05,10,07,991.43
2015,04,05,10,08,991.43
2015,04,05,10,09,991.43
2015,04,05,10,10,991.40
2015,04,05,10,11,991.40
2015,04,05,10,12,991.37
2015,04,05,10,13,991.37
2015,04,05,10,14,991.33
2015,04,05,10,15,991.33
2015,04,05,10,16,991.37
2015,04,05,10,17,991.37
2015,04,05,10,18,991.37
2015,04,05,10,19,991.33
2015,04,05,10,20,991.33
2015,04,05,10,21,991.33
2015,04,05,10,22,991.30
2015,04,05,10,23,991.26
2015,04,05,10,24,991.30
2015,04,05,10,25,991.37
2015,04,05,10,26,991.37
2015,04,05,10,27,991.33
2015,04,05,10,28,991.33
2015,04,05,10,29,991.26
2015,04,05,10,30,991.26
2015,04,05,10,31,991.26
2015,04,05,10,32,991.26
2015,04,05,10,33,991.26
2015,04,05,10,34,991.23
2015,04,05,10,35,991.26
2015,04,05,10,36,991.33
2015,04,05,10,37,991.33
2015,04,05,10,38,991.37
2015,04,05,10,39,991.33
2015,04,05,10,40,991.37
2015,04,05,10,41,991.37
2015,04,05,10,42,991.40
2015,04,05,10,43,991.43
2015,04,05,10,44,991.50
2015,04,05,10,45,991.47
2015,04,05,10,46,991.47
2015,04,05,10,47,991.50
2015,04,05,10,48,991.47
2015,04,05,10,49,991.47
2015,04,05,10,50,991.50
2015,04,05,10,51,991.50
2015,04,05,10,52,991.47
2015,04,05,10,53,991.47
2015,04,05,10,54,991.47
2015,04,05,10,55,991.43
2015,04,05,10,56,991.43
2015,04,05,10,57,991.40
2015,04,05,10,58,991.37
2015,04,05,10,59,991.37
2015,04,05,11,00,991.37
2015,04,05,11,01,991.40
2015,04,05,11,02,991.37
2015,04,05,11,03,991.40
2015,04,05,11,04,991.37
2015,04,05,11,05,991.37
2015,04,05,11,06,991.37
2015,04,05,11,07,991.40
2015,04,05,11,08,991.43
2015,04,05,11,09,991.40
2015,04,05,11,10,991.40
2015,04,05,11,11,991.43
2015,04,05,11,12,991.47
2015,04,05,11,13,991.47
2015,04,05,11,14,991.50
2015,04,05,11,15,991.50
2015,04,05,11,16,991.50
2015,04,05,11,17,991.50
2015,04,05,11,18,991.50
2015,04,05,11,19,991.50
2015,04,05,11,20,991.47
2015,04,05,11,21,991.43
2015,04,05,11,22,991.40
2015,04,05,11,23,991.43
2015,04,05,11,24,991.40
2015,04,05,11,25,991.37
2015,04,05,11,26,991.40
2015,04,05,11,27,991.30
2015,04,05,11,28,991.37
2015,04,05,11,29,991.33
2015,04,05,11,30,991.33
2015,04,05,11,31,991.33
2015,04,05,11,32,991.37
2015,04,05,11,33,991.37
2015,04,05,11,34,991.33
2015,04,05,11,35,991.33
2015,04,05,11,36,991.30
2015,04,05,11,37,991.33
2015,04,05,11,38,991.33
2015,04,05,11,39,991.37
2015,04,05,11,40,991.40
2015,04,05,11,41,991.37
2015,04,05,11,42,991.33
2015,04,05,11,43,991.33
2015,04,05,11,44,991.33
2015,04,05,11,45,991.33
2015,04,05,11,46,991.26
2015,04,05,11,47,991.30
2015,04,05,11,48,991.30
2015,04,05,11,49,991.30
2015,04,05,11,50,991.30
2015,04,05,11,51,991.30
2015,04,05,11,52,991.26
2015,04,05,11,53,991.26
2015,04,05,11,54,991.26
2015,04,05,11,55,991.23
2015,04,05,11,56,991.26
2015,04,05,11,57,991.20
2015,04,05,11,58,991.16
2015,04,05,11,59,991.20
2015,04,05,12,00,991.20
2015,04,05,12,01,991.16
2015,04,05,12,02,991.16
2015,04,05,12,03,991.13
2015,04,05,12,04,991.16
2015,04,05,12,05,991.13
2015,04,05,12,06,991.13
2015,04,05,12,07,991.09
2015,04,05,12,08,991.09
2015,04,05,12,09,991.09
2015,04,05,12,10,991.09
2015,04,05,12,11,991.09
2015,04,05,12,12,991.09
2015,04,05,12,13,991.06
2015,04,05,12,14,991.06
2015,04,05,12,15,991.09
2015,04,05,12,16,991.06
2015,04,05,12,17,991.09
2015,04,05,12,18,991.13
2015,04,05,12,19,991.09
2015,04,05,12,20,991.09
2015,04,05,12,21,991.06
2015,04,05,12,22,991.09
2015,04,05,12,23,991.03
2015,04,05,12,24,991.09
2015,04,05,12,25,991.09
2015,04,05,12,26,991.09
2015,04,05,12,27,991.06
2015,04,05,12,28,991.13
2015,04,05,12,29,991.09
2015,04,05,12,30,991.06
2015,04,05,12,31,991.09
2015,04,05,12,32,991.03
2015,04,05,12,33,991.06
2015,04,05,12,34,991.06
2015,04,05,12,35,991.06
2015,04,05,12,36,991.03
2015,04,05,12,37,991.03
2015,04,05,12,38,991.03
2015,04,05,12,39,991.03
2015,04,05,12,40,991.06
2015,04,05,12,41,991.03
2015,04,05,12,42,991.06
2015,04,05,12,43,991.06
2015,04,05,12,44,991.03
2015,04,05,12,45,990.99
2015,04,05,12,46,990.99
2015,04,05,12,47,990.96
2015,04,05,12,48,990.99
2015,04,05,12,49,990.93
2015,04,05,12,50,990.96
2015,04,05,12,51,990.96
2015,04,05,12,52,990.99
2015,04,05,12,53,990.93
2015,04,05,12,54,990.93
2015,04,05,12,55,990.93
2015,04,05,12,56,990.93
2015,04,05,12,57,990.89
2015,04,05,12,58,990.93
2015,04,05,12,59,990.89
2015,04,05,13,00,990.89
2015,04,05,13,01,990.82
2015,04,05,13,02,990.86
2015,04,05,13,03,990.86
2015,04,05,13,04,990.86
2015,04,05,13,05,990.86
2015,04,05,13,06,990.79
2015,04,05,13,07,990.79
2015,04,05,13,08,990.79
2015,04,05,13,09,990.72
2015,04,05,13,10,990.79
2015,04,05,13,11,990.76
2015,04,05,13,12,990.76
2015,04,05,13,13,990.76
2015,04,05,13,14,990.69
2015,04,05,13,15,990.69
2015,04,05,13,16,990.65
2015,04,05,13,17,990.69
2015,04,05,13,18,990.69
2015,04,05,13,19,990.65
2015,04,05,13,20,990.69
2015,04,05,13,21,990.65
2015,04,05,13,22,990.62
2015,04,05,13,23,990.62
2015,04,05,13,24,990.59
2015,04,05,13,25,990.59
2015,04,05,13,26,990.55
2015,04,05,13,27,990.55
2015,04,05,13,28,990.55
2015,04,05,13,29,990.59
2015,04,05,13,30,990.59
2015,04,05,13,31,990.48
2015,04,05,13,32,990.48
2015,04,05,13,33,990.52
2015,04,05,13,34,990.52
2015,04,05,13,35,990.55
2015,04,05,13,36,990.55
2015,04,05,13,37,990.55
2015,04,05,13,38,990.55
2015,04,05,13,39,990.55
2015,04,05,13,40,990.55
2015,04,05,13,41,990.55
2015,04,05,13,42,990.55
2015,04,05,13,43,990.48
2015,04,05,13,44,990.48
2015,04,05,13,45,990.52
2015,04,05,13,46,990.48
2015,04,05,13,47,990.48
2015,04,05,13,48,990.48
2015,04,05,13,49,990.48
2015,04,05,13,50,990.45
2015,04,05,13,51,990.42
2015,04,05,13,52,990.38
2015,04,05,13,53,990.42
2015,04,05,13,54,990.42
2015,04,05,13,55,990.45
2015,04,05,13,56,990.38
2015,04,05,13,57,990.35
2015,04,05,13,58,990.35
2015,04,05,13,59,990.35
2015,04,05,14,00,990.42
2015,04,05,14,01,990.35
2015,04,05,14,02,990.35
2015,04,05,14,03,990.35
2015,04,05,14,04,990.38
2015,04,05,14,05,990.38
2015,04,05,14,06,990.38
2015,04,05,14,07,990.38
2015,04,05,14,08,990.38
2015,04,05,14,09,990.32
2015,04,05,14,10,990.38
2015,04,05,14,11,990.38
2015,04,05,14,12,990.38
2015,04,05,14,13,990.38
2015,04,05,14,14,990.35
2015,04,05,14,15,990.35
2015,04,05,14,16,990.38
2015,04,05,14,17,990.42
2015,04,05,14,18,990.42
2015,04,05,14,19,990.42
2015,04,05,14,20,990.42
2015,04,05,14,21,990.48
2015,04,05,14,22,990.45
2015,04,05,14,23,990.45
2015,04,05,14,24,990.42
2015,04,05,14,25,990.42
2015,04,05,14,26,990.42
2015,04,05,14,27,990.38
2015,04,05,14,28,990.42
2015,04,05,14,29,990.42
2015,04,05,14,30,990.42
2015,04,05,14,31,990.35
2015,04,05,14,32,990.42
2015,04,05,14,33,990.42
2015,04,05,14,34,990.38
2015,04,05,14,35,990.42
2015,04,05,14,36,990.42
2015,04,05,14,37,990.42
2015,04,05,14,38,990.42
2015,04,05,14,39,990.45
2015,04,05,14,40,990.45
2015,04,05,14,41,990.45
2015,04,05,14,42,990.45
2015,04,05,14,43,990.45
2015,04,05,14,44,990.45
2015,04,05,14,45,990.45
2015,04,05,14,46,990.42
2015,04,05,14,47,990.45
2015,04,05,14,48,990.42
2015,04,05,14,49,990.45
2015,04,05,14,50,990.45
2015,04,05,14,51,990.42
2015,04,05,14,52,990.48
2015,04,05,14,53,990.42
2015,04,05,14,54,990.48
2015,04,05,14,55,990.42
2015,04,05,14,56,990.45
2015,04,05,14,57,990.42
2015,04,05,14,58,990.32
2015,04,05,14,59,990.32
2015,04,05,15,00,990.32
2015,04,05,15,01,990.25
2015,04,05,15,02,990.21
2015,04,05,15,03,990.21
2015,04,05,15,04,990.25
2015,04,05,15,05,990.21
2015,04,05,15,06,990.15
2015,04,05,15,07,990.15
2015,04,05,15,08,990.21
2015,04,05,15,09,990.18
2015,04,05,15,10,990.15
2015,04,05,15,11,990.11
2015,04,05,15,12,990.08
2015,04,05,15,13,990.11
2015,04,05,15,14,990.08
2015,04,05,15,15,990.08
2015,04,05,15,16,990.08
2015,04,05,15,17,990.11
2015,04,05,15,18,990.04
2015,04,05,15,19,990.04
2015,04,05,15,20,990.04
2015,04,05,15,21,989.98
2015,04,05,15,22,989.98
2015,04,05,15,23,990.04
2015,04,05,15,24,990.04
2015,04,05,15,25,990.04
2015,04,05,15,26,990.01
2015,04,05,15,27,990.01
2015,04,05,15,28,990.01
2015,04,05,15,29,990.01
2015,04,05,15,30,990.01
2015,04,05,15,31,989.98
2015,04,05,15,32,989.94
2015,04,05,15,33,989.94
2015,04,05,15,34,989.91
2015,04,05,15,35,989.94
2015,04,05,15,36,989.91
2015,04,05,15,37,989.91
2015,04,05,15,38,989.91
2015,04,05,15,39,989.88
2015,04,05,15,40,989.91
2015,04,05,15,41,989.94
2015,04,05,15,42,989.88
2015,04,05,15,43,989.91
2015,04,05,15,44,989.84
2015,04,05,15,45,989.84
2015,04,05,15,46,989.84
2015,04,05,15,47,989.88
2015,04,05,15,48,989.84
2015,04,05,15,49,989.88
2015,04,05,15,50,989.91
2015,04,05,15,51,989.88
2015,04,05,15,52,989.84
2015,04,05,15,53,989.88
2015,04,05,15,54,989.88
2015,04,05,15,55,989.88
2015,04,05,15,56,989.88
2015,04,05,15,57,989.88
2015,04,05,15,58,989.88
2015,04,05,15,59,989.94
2015,04,05,16,00,989.91
2015,04,05,16,01,989.91
2015,04,05,16,02,990.01
2015,04,05,16,03,990.01
2015,04,05,16,04,990.01
2015,04,05,16,05,990.04
2015,04,05,16,06,990.08
2015,04,05,16,07,990.11
2015,04,05,16,08,990.15
2015,04,05,16,09,990.11
2015,04,05,16,10,990.15
2015,04,05,16,11,990.18
2015,04,05,16,12,990.18
2015,04,05,16,13,990.18
2015,04,05,16,14,990.18
2015,04,05,16,15,990.18
2015,04,05,16,16,990.11
2015,04,05,16,17,990.04
2015,04,05,16,18,989.91
2015,04,05,16,19,989.77
2015,04,05,16,20,989.74
2015,04,05,16,21,989.74
2015,04,05,16,22,989.71
2015,04,05,16,23,989.67
2015,04,05,16,24,989.74
2015,04,05,16,25,989.77
2015,04,05,16,26,989.74
2015,04,05,16,27,989.81
2015,04,05,16,28,989.81
2015,04,05,16,29,989.84
2015,04,05,16,30,989.77
2015,04,05,16,31,989.74
2015,04,05,16,32,989.77
2015,04,05,16,33,989.74
2015,04,05,16,34,989.67
2015,04,05,16,35,989.71
2015,04,05,16,36,989.71